| time (UTC) | temp F | wind direction | speed MPH | gust MPH | rain 1hr in | rain 24hr in | rain mn in | humidity % | barometer mb |
| 20260504001105 | 78 | 355 | 0.0 | 0.0 | 0.00 | 0.00 | 0.00 | 40 | 1010.3 |
| 20260504000605 | 78 | 355 | 1.0 | 5.0 | 0.00 | 0.00 | 0.00 | 37 | 1010.5 |
| 20260504000106 | 78 | 306 | 1.0 | 9.0 | 0.00 | 0.00 | 0.00 | 34 | 1010.5 |
| 20260503235604 | 78 | 309 | 0.0 | 10.0 | 0.00 | 0.00 | 0.00 | 34 | 1010.6 |
| 20260503235105 | 78 | 302 | 0.0 | 6.0 | 0.00 | 0.00 | 0.00 | 36 | 1010.6 |
| 20260503234105 | 78 | 311 | 0.0 | 6.0 | 0.00 | 0.00 | 0.00 | 35 | 1010.6 |
| 20260503233604 | 78 | 314 | 0.0 | 0.0 | 0.00 | 0.00 | 0.00 | 37 | 1010.6 |
| 20260503233105 | 77 | 349 | 0.0 | 0.0 | 0.00 | 0.00 | 0.00 | 36 | 1010.6 |
| 20260503232605 | 77 | 263 | 0.0 | 0.0 | 0.00 | 0.00 | 0.00 | 38 | 1010.7 |
| 20260503232104 | 77 | 263 | 0.0 | 0.0 | 0.00 | 0.00 | 0.00 | 38 | 1010.8 |
| 20260503231605 | 77 | 263 | 0.0 | 1.0 | 0.00 | 0.00 | 0.00 | 38 | 1010.9 |
| 20260503231105 | 78 | 262 | 0.0 | 1.0 | 0.00 | 0.00 | 0.00 | 36 | 1011.0 |
| 20260503230605 | 78 | 262 | 0.0 | 1.0 | 0.00 | 0.00 | 0.00 | 34 | 1011.1 |
| 20260503230105 | 79 | 262 | 0.0 | 1.0 | 0.00 | 0.00 | 0.00 | 35 | 1011.1 |
| 20260503225604 | 79 | 262 | 0.0 | 1.0 | 0.00 | 0.00 | 0.00 | 33 | 1011.1 |
| 20260503225105 | 79 | 261 | 0.0 | 2.0 | 0.00 | 0.00 | 0.00 | 34 | 1011.2 |
| 20260503224604 | 78 | 341 | 0.0 | 0.0 | 0.00 | 0.00 | 0.00 | 36 | 1011.2 |
| 20260503223605 | 78 | 268 | 0.0 | 3.0 | 0.00 | 0.00 | 0.00 | 37 | 1011.4 |
| 20260503223105 | 78 | 268 | 1.0 | 5.0 | 0.00 | 0.00 | 0.00 | 35 | 1011.4 |
| 20260503222605 | 78 | 319 | 0.0 | 1.0 | 0.00 | 0.00 | 0.00 | 35 | 1011.5 |
| 20260503222105 | 77 | 320 | 0.0 | 5.0 | 0.00 | 0.00 | 0.00 | 36 | 1011.5 |
| 20260503221605 | 77 | 323 | 0.0 | 0.0 | 0.00 | 0.00 | 0.00 | 36 | 1011.6 |
| 20260503220605 | 77 | 272 | 0.0 | 5.0 | 0.00 | 0.00 | 0.00 | 36 | 1011.8 |
| 20260503220105 | 78 | 260 | 0.0 | 1.0 | 0.00 | 0.00 | 0.00 | 34 | 1011.8 |
| 20260503215605 | 77 | 260 | 0.0 | 5.0 | 0.00 | 0.00 | 0.00 | 35 | 1011.9 |
| 20260503215104 | 77 | 255 | 0.0 | 2.0 | 0.00 | 0.00 | 0.00 | 36 | 1011.9 |
| 20260503214605 | 77 | 259 | 1.0 | 3.0 | 0.00 | 0.00 | 0.00 | 36 | 1012.1 |
| 20260503214106 | 77 | 303 | 0.0 | 1.0 | 0.00 | 0.00 | 0.00 | 38 | 1012.1 |
| 20260503213605 | 77 | 303 | 0.0 | 5.0 | 0.00 | 0.00 | 0.00 | 36 | 1012.1 |
| 20260503212605 | 77 | 288 | 0.0 | 1.0 | 0.00 | 0.00 | 0.00 | 40 | 1012.2 |
| 20260503212106 | 77 | 333 | 0.0 | 0.0 | 0.00 | 0.00 | 0.00 | 39 | 1012.2 |
| 20260503211605 | 77 | 86 | 0.0 | 1.0 | 0.00 | 0.00 | 0.00 | 38 | 1012.3 |
| 20260503211105 | 77 | 91 | 0.0 | 5.0 | 0.00 | 0.00 | 0.00 | 38 | 1012.3 |
| 20260503210605 | 76 | 265 | 1.0 | 5.0 | 0.00 | 0.00 | 0.00 | 40 | 1012.3 |
| 20260503210105 | 76 | 262 | 0.0 | 5.0 | 0.00 | 0.00 | 0.00 | 38 | 1012.3 |
| 20260503205604 | 76 | 271 | 0.0 | 8.0 | 0.00 | 0.00 | 0.00 | 38 | 1012.5 |
| 20260503205104 | 76 | 242 | 0.0 | 6.0 | 0.00 | 0.00 | 0.00 | 39 | 1012.4 |
| 20260503203105 | 75 | 262 | 1.0 | 8.0 | 0.00 | 0.00 | 0.00 | 41 | 1012.6 |
| 20260503202106 | 76 | 165 | 2.0 | 10.0 | 0.00 | 0.00 | 0.00 | 39 | 1012.7 |
| 20260503201605 | 76 | 272 | 0.0 | 6.0 | 0.00 | 0.00 | 0.00 | 41 | 1012.7 |
| 20260503201105 | 75 | 267 | 0.0 | 3.0 | 0.00 | 0.00 | 0.00 | 41 | 1012.9 |
| 20260503200605 | 75 | 26 | 0.0 | 1.0 | 0.00 | 0.00 | 0.00 | 44 | 1013.0 |
| 20260503200106 | 75 | 331 | 0.0 | 5.0 | 0.00 | 0.00 | 0.00 | 42 | 1013.0 |
| 20260503195605 | 75 | 113 | 0.0 | 0.0 | 0.00 | 0.00 | 0.00 | 42 | 1013.1 |
| 20260503195105 | 75 | 227 | 0.0 | 1.0 | 0.00 | 0.00 | 0.00 | 44 | 1013.2 |
| 20260503194106 | 75 | 19 | 0.0 | 1.0 | 0.00 | 0.00 | 0.00 | 47 | 1013.3 |
| 20260503193105 | 75 | 69 | 0.0 | 6.0 | 0.00 | 0.00 | 0.00 | 43 | 1013.4 |
| 20260503192605 | 75 | 351 | 0.0 | 0.0 | 0.00 | 0.00 | 0.00 | 42 | 1013.4 |
| 20260503192105 | 75 | 61 | 1.0 | 8.0 | 0.00 | 0.00 | 0.00 | 44 | 1013.5 |
| 20260503191104 | 76 | 15 | 2.0 | 8.0 | 0.00 | 0.00 | 0.00 | 40 | 1013.5 |
| 20260503190606 | 76 | 348 | 0.0 | 0.0 | 0.00 | 0.00 | 0.00 | 39 | 1013.6 |
| 20260503190105 | 74 | 350 | 6.0 | 14.0 | 0.00 | 0.00 | 0.00 | 39 | 1013.7 |
| 20260503185605 | 75 | 352 | 3.0 | 10.0 | 0.00 | 0.00 | 0.00 | 39 | 1013.7 |
| 20260503185105 | 75 | 312 | 2.0 | 10.0 | 0.00 | 0.00 | 0.00 | 38 | 1013.7 |
| 20260503184605 | 75 | 312 | 1.0 | 6.0 | 0.00 | 0.00 | 0.00 | 42 | 1013.7 |
| 20260503184104 | 75 | 332 | 0.0 | 5.0 | 0.00 | 0.00 | 0.00 | 41 | 1013.8 |
| 20260503183604 | 75 | 355 | 0.0 | 1.0 | 0.00 | 0.00 | 0.00 | 48 | 1013.8 |
| 20260503183104 | 74 | 89 | 0.0 | 5.0 | 0.00 | 0.00 | 0.00 | 46 | 1013.8 |
| 20260503182606 | 73 | 355 | 0.0 | 5.0 | 0.00 | 0.00 | 0.00 | 51 | 1013.8 |
| 20260503182104 | 74 | 55 | 0.0 | 6.0 | 0.00 | 0.00 | 0.00 | 48 | 1013.8 |
| 20260503181604 | 73 | 69 | 0.0 | 3.0 | 0.00 | 0.00 | 0.00 | 50 | 1013.8 |
| 20260503180605 | 73 | 60 | 1.0 | 6.0 | 0.00 | 0.00 | 0.00 | 46 | 1013.8 |
| 20260503180105 | 73 | 42 | 1.0 | 5.0 | 0.00 | 0.00 | 0.00 | 45 | 1013.8 |
| 20260503175605 | 73 | 308 | 2.0 | 14.0 | 0.00 | 0.00 | 0.00 | 45 | 1013.8 |
| 20260503175105 | 73 | 304 | 5.0 | 9.0 | 0.00 | 0.00 | 0.00 | 43 | 1013.9 |
| 20260503174605 | 74 | 322 | 2.0 | 8.0 | 0.00 | 0.00 | 0.00 | 40 | 1013.9 |
| 20260503174106 | 74 | 320 | 4.0 | 9.0 | 0.00 | 0.00 | 0.00 | 43 | 1013.9 |
| 20260503173605 | 73 | 32 | 3.0 | 12.0 | 0.00 | 0.00 | 0.00 | 43 | 1014.0 |
| 20260503173105 | 73 | 341 | 0.0 | 12.0 | 0.00 | 0.00 | 0.00 | 44 | 1014.0 |
| 20260503172605 | 73 | 315 | 9.0 | 14.0 | 0.00 | 0.00 | 0.00 | 42 | 1014.0 |
| 20260503172104 | 73 | 200 | 0.0 | 2.0 | 0.00 | 0.00 | 0.00 | 40 | 1014.0 |
| 20260503171604 | 73 | 267 | 0.0 | 1.0 | 0.00 | 0.00 | 0.00 | 44 | 1014.1 |
| 20260503171105 | 72 | 11 | 0.0 | 5.0 | 0.00 | 0.00 | 0.00 | 46 | 1014.1 |
| 20260503170105 | 71 | 324 | 0.0 | 9.0 | 0.00 | 0.00 | 0.00 | 46 | 1014.1 |
| 20260503160105 | 67 | 306 | 0.0 | 0.0 | 0.00 | 0.00 | 0.00 | 50 | 1014.1 |
| 20260503150605 | 63 | 261 | 0.0 | 1.0 | 0.00 | 0.00 | 0.00 | 56 | 1014.5 |
| 20260503150105 | 63 | 292 | 0.0 | 0.0 | 0.00 | 0.00 | 0.00 | 55 | 1014.5 |
| 20260503140105 | 64 | 343 | 0.0 | 1.0 | 0.00 | 0.00 | 0.00 | 54 | 1014.4 |
| 20260503130605 | 64 | 306 | 3.0 | 16.0 | 0.00 | 0.00 | 0.00 | 50 | 1014.5 |
| 20260503130104 | 64 | 351 | 6.0 | 14.0 | 0.00 | 0.00 | 0.00 | 50 | 1014.6 |
| 20260503120104 | 65 | 313 | 4.0 | 14.0 | 0.00 | 0.00 | 0.00 | 48 | 1014.6 |
| 20260503110605 | 65 | 333 | 1.0 | 5.0 | 0.00 | 0.00 | 0.00 | 48 | 1014.6 |
| 20260503110105 | 65 | 324 | 1.0 | 17.0 | 0.00 | 0.00 | 0.00 | 49 | 1014.5 |
| 20260503100105 | 67 | 353 | 2.0 | 9.0 | 0.00 | 0.00 | 0.00 | 45 | 1014.6 |
| 20260503090104 | 68 | 334 | 6.0 | 17.0 | 0.00 | 0.00 | 0.00 | 42 | 1014.7 |
| 20260503081105 | 67 | 290 | 2.0 | 10.0 | 0.00 | 0.00 | 0.00 | 44 | 1014.9 |
| 20260503080606 | 67 | 284 | 9.0 | 20.0 | 0.00 | 0.00 | 0.00 | 44 | 1014.9 |
| 20260503080104 | 66 | 302 | 2.0 | 9.0 | 0.00 | 0.00 | 0.00 | 50 | 1014.9 |
| 20260503072606 | 68 | 27 | 3.0 | 10.0 | 0.00 | 0.00 | 0.00 | 45 | 1014.9 |
| 20260503072104 | 67 | 309 | 1.0 | 8.0 | 0.00 | 0.00 | 0.00 | 50 | 1014.8 |
| 20260503071605 | 67 | 6 | 2.0 | 16.0 | 0.00 | 0.00 | 0.00 | 47 | 1014.7 |
| 20260503071105 | 65 | 307 | 1.0 | 9.0 | 0.00 | 0.00 | 0.00 | 50 | 1014.7 |
| 20260503070104 | 65 | 315 | 0.0 | 6.0 | 0.00 | 0.00 | 0.00 | 51 | 1014.7 |
| 20260503060104 | 67 | 321 | 2.0 | 9.0 | 0.00 | 0.00 | 0.00 | 46 | 1014.7 |
| 20260503055104 | 65 | 317 | 0.0 | 0.0 | 0.00 | 0.00 | 0.00 | 52 | 1014.8 |
| 20260503054604 | 66 | 317 | 0.0 | 2.0 | 0.00 | 0.00 | 0.00 | 51 | 1014.8 |
| 20260503054104 | 66 | 317 | 2.0 | 8.0 | 0.00 | 0.00 | 0.00 | 50 | 1014.7 |
| 20260503053605 | 67 | 15 | 0.0 | 3.0 | 0.00 | 0.00 | 0.00 | 47 | 1014.7 |
| 20260503052604 | 66 | 28 | 0.0 | 0.0 | 0.00 | 0.00 | 0.00 | 49 | 1014.7 |
| 20260503052105 | 67 | 28 | 1.0 | 6.0 | 0.00 | 0.00 | 0.00 | 46 | 1014.7 |
| 20260503051604 | 67 | 78 | 0.0 | 5.0 | 0.00 | 0.00 | 0.00 | 47 | 1014.8 |
| 20260503050604 | 66 | 304 | 0.0 | 5.0 | 0.00 | 0.00 | 0.00 | 48 | 1014.8 |
| 20260503044605 | 66 | 29 | 0.0 | 0.0 | 0.00 | 0.00 | 0.00 | 44 | 1014.7 |
| 20260503044105 | 66 | 13 | 0.0 | 0.0 | 0.00 | 0.00 | 0.00 | 46 | 1014.7 |
| 20260503043605 | 67 | 8 | 1.0 | 9.0 | 0.00 | 0.00 | 0.00 | 44 | 1014.7 |
| 20260503042604 | 67 | 167 | 0.0 | 10.0 | 0.00 | 0.00 | 0.00 | 44 | 1014.5 |
| 20260503042104 | 66 | 5 | 0.0 | 0.0 | 0.00 | 0.00 | 0.00 | 48 | 1014.6 |
| 20260503041604 | 67 | 5 | 0.0 | 0.0 | 0.00 | 0.00 | 0.00 | 47 | 1014.4 |
| 20260503041106 | 67 | 5 | 0.0 | 1.0 | 0.00 | 0.00 | 0.00 | 43 | 1014.4 |
| 20260503040605 | 67 | 346 | 0.0 | 1.0 | 0.00 | 0.00 | 0.00 | 47 | 1014.5 |
| 20260503040104 | 66 | 345 | 0.0 | 3.0 | 0.00 | 0.00 | 0.00 | 49 | 1014.4 |
| 20260503035105 | 67 | 346 | 2.0 | 8.0 | 0.00 | 0.00 | 0.00 | 47 | 1014.3 |
| 20260503034104 | 67 | 325 | 0.0 | 9.0 | 0.00 | 0.00 | 0.00 | 50 | 1014.3 |
| 20260503033604 | 67 | 28 | 0.0 | 2.0 | 0.00 | 0.00 | 0.00 | 50 | 1014.2 |
| 20260503033104 | 67 | 28 | 0.0 | 0.0 | 0.00 | 0.00 | 0.00 | 47 | 1014.1 |
| 20260503032604 | 67 | 28 | 0.0 | 0.0 | 0.00 | 0.00 | 0.00 | 50 | 1014.0 |
| 20260503031605 | 67 | 28 | 0.0 | 2.0 | 0.00 | 0.00 | 0.00 | 47 | 1014.0 |
| 20260503031104 | 67 | 34 | 1.0 | 6.0 | 0.00 | 0.00 | 0.00 | 45 | 1013.9 |
| 20260503030604 | 67 | 315 | 1.0 | 10.0 | 0.00 | 0.00 | 0.00 | 51 | 1013.9 |
| 20260503030104 | 67 | 5 | 0.0 | 0.0 | 0.00 | 0.00 | 0.00 | 53 | 1013.9 |
| 20260503025605 | 67 | 5 | 0.0 | 0.0 | 0.00 | 0.00 | 0.00 | 50 | 1013.8 |
| 20260503025105 | 67 | 5 | 0.0 | 0.0 | 0.00 | 0.00 | 0.00 | 51 | 1013.8 |
| 20260503024105 | 67 | 348 | 0.0 | 0.0 | 0.00 | 0.00 | 0.00 | 49 | 1013.7 |
| 20260503023604 | 68 | 348 | 0.0 | 0.0 | 0.00 | 0.00 | 0.00 | 50 | 1013.7 |
| 20260503023104 | 68 | 348 | 0.0 | 0.0 | 0.00 | 0.00 | 0.00 | 49 | 1013.7 |
| 20260503022604 | 68 | 348 | 0.0 | 0.0 | 0.00 | 0.00 | 0.00 | 49 | 1013.8 |
| 20260503021605 | 68 | 348 | 0.0 | 0.0 | 0.00 | 0.00 | 0.00 | 49 | 1013.8 |
| 20260503020604 | 68 | 348 | 0.0 | 0.0 | 0.00 | 0.00 | 0.00 | 50 | 1013.8 |
| 20260503020105 | 69 | 348 | 0.0 | 0.0 | 0.00 | 0.00 | 0.00 | 48 | 1013.8 |
| 20260503015104 | 70 | 348 | 1.0 | 6.0 | 0.00 | 0.00 | 0.00 | 43 | 1013.9 |
| 20260503014604 | 70 | 311 | 1.0 | 5.0 | 0.00 | 0.00 | 0.00 | 49 | 1014.1 |
| 20260503014104 | 70 | 92 | 0.0 | 0.0 | 0.00 | 0.00 | 0.00 | 49 | 1014.1 |
| 20260503013604 | 70 | 92 | 0.0 | 0.0 | 0.00 | 0.00 | 0.00 | 49 | 1014.2 |
| 20260503012604 | 70 | 279 | 0.0 | 1.0 | 0.00 | 0.00 | 0.00 | 47 | 1014.1 |
| 20260503012104 | 71 | 238 | 0.0 | 0.0 | 0.00 | 0.00 | 0.00 | 45 | 1014.2 |
| 20260503011604 | 72 | 258 | 0.0 | 0.0 | 0.00 | 0.00 | 0.00 | 45 | 1014.2 |
| 20260503011104 | 73 | 259 | 0.0 | 2.0 | 0.00 | 0.00 | 0.00 | 43 | 1014.1 |
| 20260503010604 | 73 | 275 | 0.0 | 10.0 | 0.00 | 0.00 | 0.00 | 40 | 1014.1 |
| 20260503010104 | 72 | 321 | 1.0 | 6.0 | 0.00 | 0.00 | 0.00 | 43 | 1014.1 |
| 20260503005604 | 73 | 190 | 0.0 | 0.0 | 0.00 | 0.00 | 0.00 | 44 | 1014.1 |
| 20260503005104 | 73 | 190 | 0.0 | 2.0 | 0.00 | 0.00 | 0.00 | 45 | 1014.2 |
| 20260503004604 | 74 | 260 | 0.0 | 0.0 | 0.00 | 0.00 | 0.00 | 43 | 1014.2 |
| 20260503004105 | 74 | 260 | 2.0 | 13.0 | 0.00 | 0.00 | 0.00 | 37 | 1014.3 |
| 20260503003605 | 74 | 305 | 0.0 | 10.0 | 0.00 | 0.00 | 0.00 | 40 | 1014.3 |
| 20260503003104 | 74 | 297 | 1.0 | 6.0 | 0.00 | 0.00 | 0.00 | 42 | 1014.3 |
| 20260503002604 | 74 | 301 | 0.0 | 0.0 | 0.00 | 0.00 | 0.00 | 40 | 1014.3 |
| 20260503001604 | 75 | 304 | 1.0 | 6.0 | 0.00 | 0.00 | 0.00 | 35 | 1014.5 |